Simultaneous Nadir Overpasses (SNOs) Predictions

Prediction of SNOs between LANDSAT-8 and NPP Satellite Orbit:

Table of predicted SNOs for the next 14.0 days since TLE Epoch: 1/10/2014
Index Date (LANDSAT-8) Time (LANDSAT-8) Lat,Lon (LANDSAT-8) SZA (LANDSAT-8 ) Date (NPP) Time (NPP) Lat,Lon (NPP) SZA (NPP ) Distance(km) Time Diff (sec)
1 01/11/2014 13:53:40 70.22, -31.57 91.94 01/11/2014 13:52:50 70.21, -31.60 91.94 1.54 50
2 01/11/2014 14:43:10 -70.11, 135.90 88.18 01/11/2014 14:43:31 -70.09, 135.91 88.20 2.08 21
3 01/14/2014 05:20:25 -71.07, -82.05 87.68 01/14/2014 05:19:18 -71.08, -84.55 87.58 90.32 67
4 01/14/2014 06:10:07 70.15, 84.21 91.43 01/14/2014 06:09:47 70.16, 84.25 91.45 2.21 20
5 01/14/2014 06:59:37 -70.04,-108.32 88.69 01/14/2014 07:00:28 -70.04,-108.24 88.69 2.96 51
6 01/16/2014 21:37:04 -70.27, 32.63 88.94 01/16/2014 21:35:59 -70.26, 32.57 88.94 2.94 65
7 01/16/2014 22:26:32 70.11,-159.96 90.90 01/16/2014 22:26:43 70.13,-159.92 90.92 2.37 11
8 01/16/2014 23:16:08 -69.67, 7.06 89.53 01/16/2014 23:17:18 -69.68, 8.08 89.56 39.15 70
9 01/19/2014 13:53:30 -70.21, 148.44 89.53 01/19/2014 13:52:56 -70.22, 148.40 89.51 1.90 34
10 01/19/2014 14:42:57 70.10, -44.08 90.36 01/19/2014 14:43:40 70.10, -44.10 90.35 1.06 43
11 01/22/2014 05:20:25 70.30, 96.82 89.98 01/22/2014 05:19:12 70.34, 96.67 90.04 7.09 73
12 01/22/2014 06:09:56 -70.13, -95.79 90.19 01/22/2014 06:09:52 -70.15, -95.71 90.17 3.38 4
13 01/22/2014 06:59:23 70.02, 71.70
